Location: Vancouver
(49.2500°N, 123.1330°W)
Time: 01:26:26
(UTC-07:00)

ISS - Visible Passes

Search period start: 30 May 2015 00:00
Search period end: 09 June 2015 00:00
Orbit: 399 x 404 km, 51.6° (Epoch: 29 May)

Date Brightness Start Highest point End Pass type
(mag) Time Alt. Az. Time Alt. Az. Time Alt. Az.
30 May -2.8 01:27:26 10° W 01:30:40 59° N 01:33:54 10° ENE visible
30 May -2.9 03:04:04 10° WNW 03:07:18 63° N 03:10:34 10° E visible
30 May -2.6 22:58:12 10° SSW 23:01:06 31° SSE 23:04:02 10° E visible
31 May -3.2 00:34:06 10° W 00:37:22 73° NNW 00:40:37 10° ENE visible
31 May -2.6 02:10:46 10° WNW 02:13:59 55° N 02:17:12 10° E visible
31 May -3.4 03:47:14 10° WNW 03:50:28 66° SSW 03:53:43 10° ESE visible
31 May -1.9 22:05:38 10° S 22:08:00 19° SE 22:10:25 10° E visible
31 May -3.5 23:40:49 10° WSW 23:44:04 82° SSE 23:47:20 10° ENE visible
01 Jun -2.6 01:17:25 10° W 01:20:38 53° N 01:23:50 10° ENE visible
01 Jun -3.4 02:53:57 10° WNW 02:57:13 86° NNE 03:00:30 10° ESE visible
01 Jun -2.2 04:30:40 10° W 04:33:22 23° SW 04:36:02 10° SSE visible
01 Jun -3.3 22:47:38 10° SW 22:50:49 55° SSE 22:54:01 10° ENE visible
02 Jun -2.7 00:24:02 10° W 00:27:15 57° N 00:30:29 10° ENE visible
02 Jun -3.0 02:00:39 10° WNW 02:03:54 66° NNE 02:07:09 10° E visible
02 Jun -2.9 03:37:09 10° W 03:40:13 37° SSW 03:43:17 10° SE visible
02 Jun -2.7 21:54:38 10° SW 21:57:37 34° SSE 22:00:38 10° E visible
02 Jun -3.1 23:30:40 10° W 23:33:54 69° NNW 23:37:10 10° ENE visible
03 Jun -2.7 01:07:19 10° WNW 01:10:33 56° N 01:13:46 10° E visible
03 Jun -3.4 02:43:47 10° WNW 02:47:00 59° SSW 02:50:14 10° SE visible
03 Jun -1.4 04:21:22 10° WSW 04:22:56 13° SW 04:24:25 10° SSW visible
03 Jun -3.4 22:37:19 10° WSW 22:40:35 89° SSE 22:43:51 10° ENE visible
04 Jun -2.5 00:13:57 10° WNW 00:17:09 53° N 00:20:22 10° E visible
04 Jun -3.5 01:50:27 10° WNW 01:53:44 87° SSW 01:57:00 10° ESE visible
04 Jun -2.0 03:27:17 10° W 03:29:42 21° SW 03:29:42 21° SW visible
04 Jun -2.6 23:20:33 10° W 23:23:45 56° N 23:26:59 10° ENE visible
05 Jun -3.1 00:57:08 10° WNW 01:00:23 70° NNE 01:02:58 15° E visible
05 Jun -2.0 02:33:41 10° W 02:35:26 24° WSW 02:35:26 24° WSW visible
05 Jun -2.9 22:27:08 10° W 22:30:22 65° NNW 22:33:37 10° ENE visible
06 Jun -2.7 00:03:47 10° WNW 00:07:00 58° N 00:10:14 10° E visible
06 Jun -3.0 01:40:15 10° WNW 01:42:55 47° WSW 01:42:55 47° WSW visible
06 Jun -2.6 23:10:23 10° WNW 23:13:35 53° N 23:16:48 10° E visible
07 Jun -3.5 00:46:53 10° WNW 00:50:09 81° SSW 00:50:48 53° SE visible
07 Jun -2.6 22:16:57 10° W 22:20:10 54° N 22:23:22 10° ENE visible
07 Jun -3.2 23:53:31 10° WNW 23:56:47 74° NNE 23:58:52 20° E visible
08 Jun -1.4 01:30:06 10° W 01:31:24 19° W 01:31:24 19° W visible
08 Jun -2.8 23:00:08 10° WNW 23:03:22 60° N 23:06:36 10° E visible
